Time,TemperatureF,DewpointF,PressureIn,WindDirection,WindDirectionDegrees,WindSpeedMPH,WindSpeedGustMPH,Humidity,HourlyPrecipIn,Conditions,Clouds,dailyrainin,SoftwareType,DateUTC
2013-08-05 00:02:00,68.0,-99.9,29.91,WNW,283,3.0,5.0,-999,-99.99,,,-99.99,,2013-08-05 07:02:00,
2013-08-05 00:12:00,68.0,-99.9,29.91,West,277,2.0,6.0,-999,-99.99,,,-99.99,,2013-08-05 07:12:00,
2013-08-05 00:22:00,68.0,-99.9,29.91,West,277,2.0,6.0,-999,-99.99,,,-99.99,,2013-08-05 07:22:00,
2013-08-05 00:33:00,68.0,-99.9,29.92,WNW,295,3.0,5.0,-999,-99.99,,,-99.99,,2013-08-05 07:33:00,
2013-08-05 00:43:00,67.0,-99.9,29.91,WNW,285,3.0,6.0,-999,-99.99,,,-99.99,,2013-08-05 07:43:00,
2013-08-05 00:53:00,67.0,-99.9,29.91,WNW,285,3.0,6.0,-999,-99.99,,,-99.99,,2013-08-05 07:53:00,
2013-08-05 01:02:00,67.0,-99.9,29.92,WNW,286,2.0,5.0,-999,-99.99,,,-99.99,,2013-08-05 08:02:00,
2013-08-05 01:12:00,67.0,-99.9,29.92,WNW,286,2.0,5.0,-999,-99.99,,,-99.99,,2013-08-05 08:12:00,
2013-08-05 01:20:00,66.0,-99.9,29.92,West,274,3.0,5.0,-999,-99.99,,,-99.99,,2013-08-05 08:20:00,
2013-08-05 01:22:00,67.0,-99.9,29.93,West,269,3.0,5.0,-999,-99.99,,,-99.99,,2013-08-05 08:22:00,
2013-08-05 01:34:00,67.0,-99.9,29.93,West,269,3.0,5.0,-999,-99.99,,,-99.99,,2013-08-05 08:34:00,
2013-08-05 02:49:00,65.0,-99.9,29.89,WNW,292,1.0,4.0,-999,-99.99,,,-99.99,,2013-08-05 09:49:00,
2013-08-05 03:13:00,65.0,-99.9,29.90,West,281,2.0,3.0,-999,-99.99,,,-99.99,,2013-08-05 10:13:00,
2013-08-05 03:18:00,65.0,-99.9,29.90,West,281,2.0,3.0,-999,-99.99,,,-99.99,,2013-08-05 10:18:00,
2013-08-05 03:28:00,65.0,-99.9,29.90,West,281,2.0,3.0,-999,-99.99,,,-99.99,,2013-08-05 10:28:00,
2013-08-05 03:37:00,65.0,-99.9,29.91,West,260,2.0,4.0,-999,-99.99,,,-99.99,,2013-08-05 10:37:00,
2013-08-05 03:50:00,65.0,-99.9,29.90,WSW,251,2.0,4.0,-999,-99.99,,,-99.99,,2013-08-05 10:50:00,
2013-08-05 04:11:00,65.0,-99.9,29.91,SW,226,2.0,5.0,-999,-99.99,,,-99.99,,2013-08-05 11:11:00,
2013-08-05 04:54:00,65.0,-99.9,29.91,SW,229,2.0,6.0,-999,-99.99,,,-99.99,,2013-08-05 11:54:00,
2013-08-05 04:59:00,64.0,-99.9,29.91,WSW,242,1.0,3.0,-999,-99.99,,,-99.99,,2013-08-05 11:59:00,
2013-08-05 05:17:00,64.0,-99.9,29.90,SW,228,2.0,5.0,-999,-99.99,,,-99.99,,2013-08-05 12:17:00,
2013-08-05 05:28:00,64.0,-99.9,29.90,SW,228,2.0,5.0,-999,-99.99,,,-99.99,,2013-08-05 12:28:00,
2013-08-05 05:34:00,64.0,-99.9,29.91,NNW,343,0.0,1.0,-999,-99.99,,,-99.99,,2013-08-05 12:34:00,
2013-08-05 05:53:00,64.0,-99.9,29.92,NNE,14,1.0,2.0,-999,-99.99,,,-99.99,,2013-08-05 12:53:00,
2013-08-05 06:02:00,64.0,-99.9,29.91,WSW,252,3.0,5.0,-999,-99.99,,,-99.99,,2013-08-05 13:02:00,
2013-08-05 06:14:00,64.0,-99.9,29.92,ENE,59,2.0,4.0,-999,-99.99,,,-99.99,,2013-08-05 13:14:00,
2013-08-05 06:40:00,64.0,-99.9,29.92,East,99,1.0,2.0,-999,-99.99,,,-99.99,,2013-08-05 13:40:00,
2013-08-05 06:47:00,64.0,-99.9,29.92,ENE,73,1.0,3.0,-999,-99.99,,,-99.99,,2013-08-05 13:47:00,
2013-08-05 06:54:00,64.0,-99.9,29.92,ENE,73,1.0,3.0,-999,-99.99,,,-99.99,,2013-08-05 13:54:00,
2013-08-05 07:06:00,64.0,-99.9,29.92,ENE,73,1.0,3.0,-999,-99.99,,,-99.99,,2013-08-05 14:06:00,
2013-08-05 07:17:00,64.0,-99.9,29.93,ESE,122,1.0,6.0,-999,-99.99,,,-99.99,,2013-08-05 14:17:00,
2013-08-05 07:50:00,64.0,-99.9,29.93,South,175,2.0,4.0,-999,-99.99,,,-99.99,,2013-08-05 14:50:00,
2013-08-05 08:08:00,64.0,-99.9,29.94,South,179,2.0,4.0,-999,-99.99,,,-99.99,,2013-08-05 15:08:00,
2013-08-05 08:25:00,64.0,-99.9,29.94,SW,231,0.0,3.0,-999,-99.99,,,-99.99,,2013-08-05 15:25:00,
2013-08-05 08:40:00,64.0,-99.9,29.94,SW,231,0.0,3.0,-999,-99.99,,,-99.99,,2013-08-05 15:40:00,
2013-08-05 09:00:00,64.0,-99.9,29.93,SW,234,2.0,3.0,-999,-99.99,,,-99.99,,2013-08-05 16:00:00,
2013-08-05 09:12:00,64.0,-99.9,29.93,East,98,2.0,4.0,-999,-99.99,,,-99.99,,2013-08-05 16:12:00,
2013-08-05 09:18:00,64.0,-99.9,29.93,East,98,2.0,4.0,-999,-99.99,,,-99.99,,2013-08-05 16:18:00,
2013-08-05 09:28:00,64.0,-99.9,29.93,East,98,2.0,4.0,-999,-99.99,,,-99.99,,2013-08-05 16:28:00,
2013-08-05 09:34:00,65.0,-99.9,29.93,SW,219,1.0,4.0,-999,-99.99,,,-99.99,,2013-08-05 16:34:00,
2013-08-05 09:45:00,65.0,-99.9,29.95,West,274,1.0,4.0,-999,-99.99,,,-99.99,,2013-08-05 16:45:00,
2013-08-05 10:00:00,65.0,-99.9,29.95,West,274,1.0,4.0,-999,-99.99,,,-99.99,,2013-08-05 17:00:00,
2013-08-05 10:09:00,65.0,-99.9,29.94,West,260,3.0,5.0,-999,-99.99,,,-99.99,,2013-08-05 17:09:00,
2013-08-05 10:16:00,65.0,-99.9,29.94,West,260,3.0,5.0,-999,-99.99,,,-99.99,,2013-08-05 17:16:00,
2013-08-05 10:50:00,67.0,-99.9,29.94,WNW,282,3.0,7.0,-999,-99.99,,,-99.99,,2013-08-05 17:50:00,
2013-08-05 11:01:00,68.0,-99.9,29.94,West,259,4.0,8.0,-999,-99.99,,,-99.99,,2013-08-05 18:01:00,
2013-08-05 11:08:00,68.0,-99.9,29.94,West,259,4.0,8.0,-999,-99.99,,,-99.99,,2013-08-05 18:08:00,
2013-08-05 11:13:00,68.0,-99.9,29.94,West,259,4.0,8.0,-999,-99.99,,,-99.99,,2013-08-05 18:13:00,
2013-08-05 11:40:00,70.0,-99.9,29.92,SSE,167,3.0,7.0,-999,-99.99,,,-99.99,,2013-08-05 18:40:00,
2013-08-05 11:54:00,70.0,-99.9,29.92,SSE,167,3.0,7.0,-999,-99.99,,,-99.99,,2013-08-05 18:54:00,
2013-08-05 12:05:00,73.0,-99.9,29.92,South,170,4.0,8.0,-999,-99.99,,,-99.99,,2013-08-05 19:05:00,
2013-08-05 12:15:00,73.0,-99.9,29.92,SW,224,4.0,8.0,-999,-99.99,,,-99.99,,2013-08-05 19:15:00,
2013-08-05 12:39:00,74.0,-99.9,29.93,SW,223,4.0,8.0,-999,-99.99,,,-99.99,,2013-08-05 19:39:00,
2013-08-05 12:54:00,74.0,-99.9,29.93,SW,223,4.0,8.0,-999,-99.99,,,-99.99,,2013-08-05 19:54:00,
2013-08-05 13:09:00,75.0,-99.9,29.92,SSW,205,5.0,10.0,-999,-99.99,,,-99.99,,2013-08-05 20:09:00,
2013-08-05 13:15:00,75.0,-99.9,29.92,SSW,205,5.0,10.0,-999,-99.99,,,-99.99,,2013-08-05 20:15:00,
2013-08-05 13:40:00,75.0,-99.9,29.91,SW,229,6.0,10.0,-999,-99.99,,,-99.99,,2013-08-05 20:40:00,
2013-08-05 13:48:00,76.0,-99.9,29.92,SW,236,6.0,12.0,-999,-99.99,,,-99.99,,2013-08-05 20:48:00,
2013-08-05 14:03:00,76.0,-99.9,29.90,SSW,194,4.0,10.0,-999,-99.99,,,-99.99,,2013-08-05 21:03:00,
2013-08-05 14:20:00,77.0,-99.9,29.91,SW,235,6.0,10.0,-999,-99.99,,,-99.99,,2013-08-05 21:20:00,
2013-08-05 14:34:00,78.0,-99.9,29.90,SSE,160,5.0,11.0,-999,-99.99,,,-99.99,,2013-08-05 21:34:00,
2013-08-05 14:48:00,78.0,-99.9,29.92,SSW,197,5.0,10.0,-999,-99.99,,,-99.99,,2013-08-05 21:48:00,
2013-08-05 14:54:00,78.0,-99.9,29.91,South,184,7.0,12.0,-999,-99.99,,,-99.99,,2013-08-05 21:54:00,
2013-08-05 15:06:00,78.0,-99.9,29.90,SW,215,4.0,12.0,-999,-99.99,,,-99.99,,2013-08-05 22:06:00,
2013-08-05 15:28:00,78.0,-99.9,29.89,South,177,7.0,12.0,-999,-99.99,,,-99.99,,2013-08-05 22:28:00,
2013-08-05 15:38:00,78.0,-99.9,29.89,South,177,7.0,12.0,-999,-99.99,,,-99.99,,2013-08-05 22:38:00,
2013-08-05 15:45:00,78.0,-99.9,29.89,South,177,7.0,12.0,-999,-99.99,,,-99.99,,2013-08-05 22:45:00,
2013-08-05 15:54:00,78.0,-99.9,29.89,South,177,7.0,12.0,-999,-99.99,,,-99.99,,2013-08-05 22:54:00,
2013-08-05 16:08:00,79.0,-99.9,29.86,South,183,5.0,10.0,-999,-99.99,,,-99.99,,2013-08-05 23:08:00,
2013-08-05 16:18:00,79.0,-99.9,29.86,South,183,5.0,10.0,-999,-99.99,,,-99.99,,2013-08-05 23:18:00,
2013-08-05 16:29:00,79.0,-99.9,29.86,South,183,5.0,10.0,-999,-99.99,,,-99.99,,2013-08-05 23:29:00,
2013-08-05 16:46:00,79.0,-99.9,29.85,South,169,4.0,9.0,-999,-99.99,,,-99.99,,2013-08-05 23:46:00,
2013-08-05 17:02:00,79.0,-99.9,29.85,South,185,5.0,12.0,-999,-99.99,,,-99.99,,2013-08-06 00:02:00,
2013-08-05 17:15:00,79.0,-99.9,29.87,South,184,5.0,10.0,-999,-99.99,,,-99.99,,2013-08-06 00:15:00,
2013-08-05 17:48:00,79.0,-99.9,29.87,SSE,164,4.0,10.0,-999,-99.99,,,-99.99,,2013-08-06 00:48:00,
2013-08-05 17:57:00,79.0,-99.9,29.87,SSE,164,4.0,10.0,-999,-99.99,,,-99.99,,2013-08-06 00:57:00,
2013-08-05 18:12:00,79.0,-99.9,29.85,South,183,5.0,11.0,-999,-99.99,,,-99.99,,2013-08-06 01:12:00,
2013-08-05 18:28:00,78.0,-99.9,29.87,SSE,168,7.0,12.0,-999,-99.99,,,-99.99,,2013-08-06 01:28:00,
2013-08-05 18:43:00,78.0,-99.9,29.88,South,173,6.0,10.0,-999,-99.99,,,-99.99,,2013-08-06 01:43:00,
2013-08-05 18:53:00,77.0,-99.9,29.89,SSE,162,6.0,11.0,-999,-99.99,,,-99.99,,2013-08-06 01:53:00,
2013-08-05 19:00:00,76.0,-99.9,29.88,South,190,4.0,9.0,-999,-99.99,,,-99.99,,2013-08-06 02:00:00,
2013-08-05 19:15:00,76.0,-99.9,29.86,SSE,167,6.0,11.0,-999,-99.99,,,-99.99,,2013-08-06 02:15:00,
2013-08-05 19:33:00,76.0,-99.9,29.88,South,190,4.0,9.0,-999,-99.99,,,-99.99,,2013-08-06 02:33:00,
2013-08-05 19:53:00,76.0,-99.9,29.88,South,190,4.0,9.0,-999,-99.99,,,-99.99,,2013-08-06 02:53:00,
2013-08-05 20:27:00,73.0,-99.9,29.89,South,170,4.0,7.0,-999,-99.99,,,-99.99,,2013-08-06 03:27:00,
2013-08-05 20:35:00,73.0,-99.9,29.90,South,169,4.0,8.0,-999,-99.99,,,-99.99,,2013-08-06 03:35:00,
2013-08-05 20:46:00,72.0,-99.9,29.91,South,173,2.0,7.0,-999,-99.99,,,-99.99,,2013-08-06 03:46:00,
2013-08-05 20:53:00,72.0,-99.9,29.91,SSE,158,2.0,6.0,-999,-99.99,,,-99.99,,2013-08-06 03:53:00,
2013-08-05 21:02:00,71.0,-99.9,29.90,South,171,3.0,5.0,-999,-99.99,,,-99.99,,2013-08-06 04:02:00,
2013-08-05 21:11:00,71.0,-99.9,29.90,South,171,3.0,5.0,-999,-99.99,,,-99.99,,2013-08-06 04:11:00,
2013-08-05 21:22:00,71.0,-99.9,29.92,SSE,162,3.0,6.0,-999,-99.99,,,-99.99,,2013-08-06 04:22:00,
2013-08-05 21:33:00,70.0,-99.9,29.92,SE,145,1.0,3.0,-999,-99.99,,,-99.99,,2013-08-06 04:33:00,
2013-08-05 21:44:00,70.0,-99.9,29.92,SE,145,1.0,3.0,-999,-99.99,,,-99.99,,2013-08-06 04:44:00,
2013-08-05 21:54:00,70.0,-99.9,29.92,ESE,113,0.0,3.0,-999,-99.99,,,-99.99,,2013-08-06 04:54:00,
2013-08-05 22:11:00,70.0,-99.9,29.92,WNW,293,2.0,4.0,-999,-99.99,,,-99.99,,2013-08-06 05:11:00,
2013-08-05 22:22:00,70.0,-99.9,29.92,WNW,293,2.0,4.0,-999,-99.99,,,-99.99,,2013-08-06 05:22:00,
2013-08-05 22:32:00,69.0,-99.9,29.93,West,275,2.0,3.0,-999,-99.99,,,-99.99,,2013-08-06 05:32:00,
2013-08-05 22:43:00,69.0,-99.9,29.93,West,275,2.0,3.0,-999,-99.99,,,-99.99,,2013-08-06 05:43:00,
2013-08-05 22:53:00,69.0,-99.9,29.93,West,275,2.0,3.0,-999,-99.99,,,-99.99,,2013-08-06 05:53:00,
2013-08-05 23:12:00,69.0,-99.9,29.95,SSE,151,2.0,4.0,-999,-99.99,,,-99.99,,2013-08-06 06:12:00,
2013-08-05 23:43:00,68.0,-99.9,29.95,SSE,149,2.0,5.0,-999,-99.99,,,-99.99,,2013-08-06 06:43:00,
2013-08-05 23:52:00,67.0,-99.9,29.94,South,172,3.0,4.0,-999,-99.99,,,-99.99,,2013-08-06 06:52:00,